Regional Weather Roundup
Issued by NWS Cleveland, OH

Home | Current Version | Previous Version | Graphics & Text | Print | Product List | Glossary On
Versions: 1 2 3 4 5 6 7 8 9 10 11 12 13 14 15 16 17 18 19 20 21 22 23 24 25 26 27 28 29 30 31 32 33 34 35 36 37 38 39 40 41 42 43 44 45 46 47 48 49 50
000
ASUS41 KCLE 171310
RWRCLE
OHIO REGIONAL WEATHER ROUNDUP
NATIONAL WEATHER SERVICE WILMINGTON, OH
900 AM EDT THU APR 17 2014

NOTE: "FAIR" INDICATES FEW OR NO CLOUDS BELOW 12,000 FEET WITH NO
SIGNIFICANT WEATHER AND/OR OBSTRUCTIONS TO VISIBILITY.

OHZ001>008-015>018-024>027-034-035-043-044-171400-
   NORTHWEST OHIO

CITY           SKY/WX    TMP DP  RH WIND       PRES   REMARKS
DEFIANCE       MOSUNNY   39  26  59 SE7       30.31S
FINDLAY        SUNNY     41  26  55 SE15      30.32R
TOLEDO EXPRESS MOSUNNY   39  23  52 VRB6      30.32S
TOLEDO METCALF MOSUNNY   40  25  55 SE9       30.34S
LIMA           SUNNY     44  27  51 S14       30.31R
$$

OHZ009>014-019>023-028>033-038-089-171400-
   NORTHEAST OHIO

CITY           SKY/WX    TMP DP  RH WIND       PRES   REMARKS
CLE-HOPKINS    MOSUNNY   44  22  41 S13G24    30.40S
CLE-LAKEFRONT  PTSUNNY   43  21  41 SE21G28   30.36S
CUY CO. ARPT   MOSUNNY   43  21  42 SE14G23   30.39R
LORAIN-ELYRIA  SUNNY     45  24  43 S18       30.37S
ASHTABULA      SUNNY     40  19  43 S16G24    30.43S
AKRON-CANTON   PTSUNNY   40  20  44 SE10      30.40S
WOOSTER        SUNNY     41  24  51 S14       30.39R
MANSFIELD      MOSUNNY   43  25  49 S15       30.35R
YOUNGSTOWN     PTSUNNY   39  18  42 SE16G23   30.42S
$$

OHZ042-051>053-060>062-070>072-077>081-171400-
  SOUTHWEST OHIO

CITY           SKY/WX    TMP DP  RH WIND       PRES   REMARKS
CINC-COVINGTON MOSUNNY   47  29  49 S10       30.34R
CINC-LUNKEN    SUNNY     41  31  67 CALM      30.37R
HAMILTON       SUNNY     46  29  51 SE3       30.36R
DAYTON         MOSUNNY   45  27  49 S12       30.33R
WRIGHT-PAT AFB SUNNY     44  27  51 S6        30.34R
DAYTON GENERAL SUNNY     46  28  49 S14       30.33R
WILMINGTON     MOSUNNY   47  28  47 S12       30.35R
$$

OHZ036-037-039>041-045>050-054>059-063>069-073>076-082>088-171400-
  CENTRAL AND SOUTHEAST OHIO

CITY           SKY/WX    TMP DP  RH WIND       PRES   REMARKS
COLUMBUS       MOSUNNY   46  23  40 SE8       30.37R
OSU AIRPORT    MOSUNNY   45  23  42 S14G22    30.36R
BOLTON FIELD   SUNNY     43  28  56 S8        30.37R
RICKENBACK AFB MOSUNNY   47  24  39 S14       30.37R
NEWARK         MOSUNNY   45  24  43 S9        30.38R
MARION         SUNNY     42  25  50 S13       30.35R
LANCASTER      MOSUNNY   47  25  42 S14       30.38R
ZANESVILLE     MOSUNNY   44  23  43 SE12      30.41R
NEW PHILLY     MOSUNNY   41  20  43 SE9       30.43R
$$



USA.gov is the U.S. government's official web portal to all federal, state and local government web resources and services.